Location: Stara Lesna
(49.1528°N, 20.2911°E)
Time: 13:37:45
(UTC+02:00)

Cosmos 1703 Rocket - Pass Details

Date: 21 September 2019
Orbit: 604 x 635 km, 82.5° (Epoch: 14 October)

Event Time Altitude Azimuth Distance (km) Brightness Sun altitude
Rises 05:27:38 0° 200° (SSW) 2,904 6.7 -9.8°
Reaches altitude 10° 05:29:55 10° 204° (SSW) 1,997 5.8 -9.5°
Maximum altitude 05:34:16 55° 283° (WNW) 750 3.7 -8.8°
Drops below altitude 10° 05:38:36 10° 2° (N) 1,995 6.3 -8.1°
Sets 05:40:53 0° 7° (N) 2,900 7.2 -7.7°
